TimePDT,TemperatureF,Dew PointF,Humidity,Sea Level PressureIn,VisibilityMPH,Wind Direction,Wind SpeedMPH,Gust SpeedMPH,PrecipitationIn,Events,Conditions,WindDirDegrees,DateUTC
1:53 AM,44.1,32.0,63,29.98,9.0,NNE,5.8,-,N/A,,Clear,20,2012-10-09 08:53:00
2:53 AM,46.9,33.1,59,29.98,9.0,NNE,4.6,-,N/A,,Clear,30,2012-10-09 09:53:00
3:53 AM,41.0,30.9,67,30.00,8.0,SW,5.8,-,N/A,,Clear,230,2012-10-09 10:53:00
5:53 AM,41.0,30.0,65,30.03,9.0,Calm,Calm,-,N/A,,Clear,0,2012-10-09 12:53:00
6:53 AM,39.9,30.0,68,30.04,9.0,Calm,Calm,-,N/A,,Clear,0,2012-10-09 13:53:00
7:53 AM,41.0,28.9,62,30.06,8.0,Calm,Calm,-,N/A,,Clear,0,2012-10-09 14:53:00
8:53 AM,48.9,30.9,50,30.06,9.0,ENE,4.6,-,N/A,,Clear,70,2012-10-09 15:53:00
9:53 AM,57.0,33.1,40,30.07,10.0,North,3.5,-,N/A,,Clear,360,2012-10-09 16:53:00
10:53 AM,63.0,33.1,33,30.07,10.0,NNE,4.6,-,N/A,,Clear,20,2012-10-09 17:53:00
11:53 AM,68.0,33.1,27,30.06,10.0,Variable,3.5,-,N/A,,Clear,0,2012-10-09 18:53:00
12:53 PM,71.1,33.1,25,30.04,10.0,NE,5.8,-,N/A,,Clear,50,2012-10-09 19:53:00
1:53 PM,72.0,33.1,24,30.02,10.0,Variable,3.5,-,N/A,,Clear,0,2012-10-09 20:53:00
2:53 PM,73.0,33.1,23,30.00,10.0,SE,3.5,-,N/A,,Clear,140,2012-10-09 21:53:00
3:53 PM,73.0,33.1,23,30.00,10.0,SSW,5.8,-,N/A,,Clear,200,2012-10-09 22:53:00
4:53 PM,72.0,35.1,26,29.99,10.0,SSW,9.2,-,N/A,,Clear,210,2012-10-09 23:53:00
5:53 PM,68.0,35.1,30,29.98,10.0,South,6.9,-,N/A,,Clear,180,2012-10-10 00:53:00
6:53 PM,57.9,34.0,41,29.99,10.0,SSW,6.9,-,N/A,,Clear,200,2012-10-10 01:53:00
7:53 PM,57.0,37.0,47,29.99,10.0,Calm,Calm,-,N/A,,Clear,0,2012-10-10 02:53:00
8:53 PM,54.0,36.0,51,29.98,10.0,Calm,Calm,-,N/A,,Clear,0,2012-10-10 03:53:00
9:53 PM,50.0,35.1,57,29.98,10.0,Calm,Calm,-,N/A,,Clear,0,2012-10-10 04:53:00
10:53 PM,51.1,34.0,52,29.97,10.0,Calm,Calm,-,N/A,,Clear,0,2012-10-10 05:53:00
11:53 PM,48.9,35.1,59,29.97,10.0,North,4.6,-,N/A,,Clear,360,2012-10-10 06:53:00